Location: Unspecified
(51.0950°N, 12.9690°E)
Time: 16:00:14
(UTC+00:00)

Cosmos 2100 Rocket - Pass Details

Date: 28 October 2021
Orbit: 955 x 1001 km, 82.9° (Epoch: 02 December)

Event Time Altitude Azimuth Distance (km) Brightness Sun altitude
Rises 18:18:46 0° 190° (S) 3,693 7.1 -24.0°
Reaches altitude 10° 18:21:16 10° 191° (S) 2,753 6.4 -24.4°
Maximum altitude 18:27:38 84° 280° (W) 1,013 4.0 -25.3°
Drops below altitude 10° 18:34:04 10° 9° (N) 2,786 6.4 -26.3°
Sets 18:36:36 0° 10° (N) 3,739 7.1 -26.7°
